Location: Asheville, NC
(35.6000°N, 82.5500°W)
Time: 00:09:15
(UTC-05:00)

ISS - Pass Details

Date: 15 December 2017
Orbit: 402 x 407 km, 51.6° (Epoch: 20 January)

Event Time Altitude Azimuth Distance (km) Brightness Sun altitude
Rises 17:57:00 0° 319° (NW) 2,333 0.3 -7.9°
Reaches altitude 10° 17:59:13 10° 329° (NNW) 1,468 -0.9 -8.3°
Maximum altitude 18:02:15 33° 36° (NE) 703 -3.1 -8.9°
Drops below altitude 10° 18:05:16 10° 103° (ESE) 1,459 -1.5 -9.4°
Enters shadow 18:05:32 - 105° (ESE) 1,565 -1.3 -9.5°
